Location: Colonia Mina de C?rbuni
(46.1667°N, 22.7167°E)
Time: 21:02:13
(UTC+00:00)

Tiros 1 - Pass Details

Date: 21 April 2024
Orbit: 624 x 657 km, 48.4° (Epoch: 20 May)

Event Time Altitude Azimuth Distance (km) Brightness Sun altitude
Rises 23:14:17 0° 253° (WSW) 2,928 - -30.6°
Reaches altitude 10° 23:16:37 10° 254° (WSW) 2,016 - -30.5°
Maximum altitude 23:21:16 87° 341° (NNW) 636 - -30.3°
Exits shadow 23:24:09 23° 72° (ENE) 1,349 9.0 -30.2°
Drops below altitude 10° 23:25:53 10° 73° (ENE) 2,003 10.0 -30.1°
Sets 23:28:12 0° 74° (ENE) 2,908 10.9 -30.0°
